World > North America > United States > Texas > Tenaha  

Tenaha, TX Hourly Weather Updates

Feedback E-mail the Weather

Quick Clicks

Tenaha, TX Weather Maps

°F °C°F °C
Tenaha Weather Map
UTC Time: 4/17/2024, 09:03
Your Time:

Tenaha, TX Regional Weather

Expires:202404171000;;889241
ASUS44 KFWD 170903
RWRTX 
NORTH TEXAS HOURLY WEATHER ROUNDUP
NATIONAL WEATHER SERVICE FORT WORTH TX
400 AM CDT WED APR 17 2024

NOTE: "FAIR" INDICATES FEW OR NO CLOUDS BELOW 12,000 FEET WITH NO
SIGNIFICANT WEATHER AND/OR OBSTRUCTIONS TO VISIBILITY.


TXZ095>097-106>112-122>126-135>138-148>153-164>167-171000-
EAST TEXAS
  
CITY           SKY/WX    TMP DP  RH WIND       PRES   REMARKS
PARIS          FAIR      68  68 100 S7        29.91S FOG              
SULPHUR SPRNGS FAIR      70  69  99 S6        29.94R                  
MOUNT PLEASANT FAIR      66 N/A N/A SE3       29.92S FOG              
GILMER         CLOUDY    69  66  89 CALM      29.92S                  
MINEOLA        FAIR      70  70 100 CALM      29.92R                  
TYLER          CLOUDY    70  68  93 S7        29.91S FOG              
LONGVIEW       CLOUDY    72  69  90 SE5       29.92S                  
MARSHALL       FAIR      70  70 100 S3        29.92S                  
ATHENS         CLOUDY    68  68 100 CALM      29.91R FOG              
PALESTINE      CLOUDY    70  70 100 SE5       29.90S FOG              
JACKSONVILLE   CLOUDY    70  69  95 S5        29.95S                  
HENDERSON      CLOUDY    74  69  85 S3        29.94S                  
CENTER           N/A     72  70  94 SE5       29.95S FOG              
NACOGDOCHES    CLOUDY    72 N/A N/A SE3       29.95R                  
LUFKIN         CLOUDY    73  71  93 SE6       29.93S                  
$$

SUPPLEMENTAL OBSERVATIONS (NWS FORT WORTH AREA)
  
CITY           SKY/WX    TMP DP  RH WIND       PRES   REMARKS
$$

SUPPLEMENTAL OBSERVATIONS (NWS NORMAN AREA)
  
CITY           SKY/WX    TMP DP  RH WIND       PRES   REMARKS
GOODLETT         N/A     61  44  53 SE6       29.86                   
ODELL            N/A     60  45  57 SE9       29.87S                  
CROWELL          N/A     58  45  63 CALM      29.87S                  
KNOX CITY        N/A     56  42  59 S5        29.87                   
SEYMOUR          N/A     56  48  75 SE7       29.86F                  
$$

SUPPLEMENTAL OBSERVATIONS (NWS SAN ANGELO AREA)
  
CITY           SKY/WX    TMP DP  RH WIND       PRES   REMARKS
WEINERT          N/A     55  44  68 SE5       29.88S                  
HASKELL          N/A     62  43  49 SE3       29.87                   
THROCKMORTON     N/A     60  53  75 W5        29.88                   
STAMFORD         N/A     58  54  84 S7        29.88                   
CLYDE            N/A     62  57  82 S9        29.92S                  
$$

SUPPLEMENTAL OBSERVATIONS (NWS SHREVEPORT AREA)
  
CITY           SKY/WX    TMP DP  RH WIND       PRES   REMARKS
$$

SUPPLEMENTAL OBSERVATIONS ARE A COLLECTION OF AUTOMATED INSTRUMENTS
THAT ARE MAINTAINED BY A VARIETY OF FEDERAL AND STATE AGENCIES. 
CERTAIN ELEMENTS...SUCH AS HUMIDITY VALUES AND SUSTAINED WIND 
SPEEDS...MAY BE APPROXIMATED.

  

SKY/WX - Weather  TMP - Temperature  DP - Dew Point  RH - Humidity
WIND - Wind Direction/Speed PRES - Barometric Pressure VSB - Visibility
WCI - Wind Chill Index E13G22 Wind - East Wind 13 mph/Gusts of 22 mph

Trending Headlines

Trending Entertainment Headlines

Tenaha Radar Loop

Use the map search tool if you want to place a location marker on the radar map...

Tenaha Quick Facts

National Two Day Weather Forecast


E-mail the Tenaha Weather Forecast

Voice your opinion or tell us about page issues...